Regional Weather Roundup
Issued by NWS

Home | Current Version | Previous Version | Graphics & Text | Print | Product List | Glossary On
Versions: 1 2 3 4 5 6 7 8 9 10 11 12 13 14 15 16 17 18 19 20 21 22 23 24 25 26 27 28 29 30 31 32 33 34 35 36 37 38 39 40 41 42 43 44 45 46 47 48 49 50
000
ASUS43 KOAX 030310
RWRNE
WEATHER ROUNDUP FOR NEBRASKA
NATIONAL WEATHER SERVICE OMAHA NE
1000 PM CDT TUE JUN 02 2015

NOTES: SATELLITE DATA IS BEING USED TO AUGMENT CLOUD COVER ABOVE
       12000 FEET.
       "FAIR" INDICATES FEW OR NO CLOUDS BELOW 12,000 FEET WITH NO
       SIGNIFICANT WEATHER AND/OR OBSTRUCTIONS TO VISIBILITY.

  * THESE STATIONS DO NOT REPORT WEATHER SUCH AS RAIN...SNOW OR FOG.

NEZ001>004-019>022-054>056-030400-
NEBRASKA PANHANDLE

CITY           SKY/WX    TMP DP  RH WIND       PRES   REMARKS
SCOTTSBLUFF    PTCLDY    66  49  54 SE5       29.83S
ALLIANCE       PTCLDY    61  53  75 N3        29.83R
CHADRON        MOCLDY    59  54  83 W5        29.82R
KIMBALL          N/A    N/A N/A N/A MISG        N/A
SIDNEY         PTCLDY    68  63  84 SE7       29.83R
$$

NEZ057>060-069>072-079>082-030400-
SOUTHWEST NEBRASKA

CITY           SKY/WX    TMP DP  RH WIND       PRES   REMARKS
NORTH PLATTE   MOCLDY    73  66  78 E8        29.78R
IMPERIAL       CLEAR     72  65  78 SE10      29.77F
LEXINGTON      PTCLDY    75  66  74 SE10      29.77F
MCCOOK         CLEAR     77  65  66 SE12      29.76F
OGALLALA       MOCLDY    74  65  74 SE9       29.76S
$$

NEZ005>010-023>029-035>040-094-030400-
NORTH CENTRAL NEBRASKA

CITY           SKY/WX    TMP DP  RH WIND       PRES   REMARKS
VALENTINE      TSTM      62  58  86 W29G41    29.88R FOG
AINSWORTH      CLOUDY    71  66  82 S8        29.84R
BROKEN BOW     MOCLDY    74  65  73 SE9       29.80S
O`NEILL        MOCLDY    71  65  81 SE5       29.82R
ORD            PTCLDY    76  63  64 SE10      29.77F
THEDFORD       CLOUDY    73  66  78 NE3       29.84R
$$

NEZ041-046>049-061>064-073>077-083>087-030400-
SOUTH CENTRAL NEBRASKA

CITY           SKY/WX    TMP DP  RH WIND       PRES   REMARKS
GRAND ISLAND   PTCLDY    75  65  70 SE17G23   29.83S
AURORA         PTCLDY    75  65  72 SE14      29.84S
HASTINGS       PTCLDY    75  67  76 SE13G21   29.83R
HEBRON         PTCLDY    75  65  70 SE14G21   29.85S
HOLDREGE       CLEAR     74  64  70 SE12      29.79F
KEARNEY *      PTCLDY    73  64  73 SE12      29.81F
YORK           CLEAR     73  66  78 SE15      29.85S
$$

NEZ011>018-030>034-042>045-030400-
NORTHEAST NEBRASKA

CITY           SKY/WX    TMP DP  RH WIND       PRES   REMARKS
NORFOLK        PTCLDY    69  61  75 SE16      29.85S
ALBION         PTCLDY    74  63  69 SE13      29.82F
BLAIR          CLEAR     66  56  71 SE15G21   29.91S
COLUMBUS *     CLEAR     70  61  73 SE15G22   29.88R
FREMONT        CLEAR     67  60  76 SE10G18   29.90R
TEKAMAH        CLEAR     68  58  70 SE17      29.90R
WAYNE          CLEAR     69  61  77 S18       29.87S
$$

NEZ050>053-065>068-078-088>093-030400-
SOUTHEAST NEBRASKA

CITY           SKY/WX    TMP DP  RH WIND       PRES   REMARKS
LINCOLN        CLEAR     69  61  75 SE15      29.90R
OMAHA EPPLEY   PTCLDY    67  58  72 SE14      29.91R
BEATRICE       CLEAR     70  63  78 SE14      29.88S
FALLS CITY     MOCLDY    67  59  75 SE12      29.91F
NEBRASKA CITY  PTCLDY    64  59  84 SE13      29.92S
PLATTSMOUTH    CLEAR     65  57  76 SE13      29.92R
$$

NEZ044-045-051>053-067-030400-
OMAHA AREA

CITY           SKY/WX    TMP DP  RH WIND       PRES   REMARKS
OMAHA EPPLEY   PTCLDY    67  58  72 SE14      29.91R
BLAIR          CLEAR     66  56  71 SE15G21   29.91S
FREMONT        CLEAR     67  60  76 SE10G18   29.90R
MILLARD        CLEAR     67  60  77 SE10      29.90S
OFFUTT AFB     CLEAR     66  58  75 SE13      29.91R
PLATTSMOUTH    CLEAR     65  57  76 SE13      29.92R
WAHOO          FAIR      65  61  85 SE14      29.90R
$$


USA.gov is the U.S. government's official web portal to all federal, state and local government web resources and services.